Location: ????????
(38.4362°N, 22.8767°E)
Time: 04:18:35
(UTC+00:00)

FENGYUN 1C DEB - Pass Details

Date: 13 October 2025
Orbit: 841 x 1273 km, 99.2° (Epoch: 16 November)

Event Time Altitude Azimuth Distance (km) Brightness Sun altitude
Rises 03:29:46 0° 10° (N) 3,411 ? -13.7°
Reaches altitude 10° 03:32:08 10° 7° (N) 2,465 ? -13.2°
Maximum altitude 03:37:27 62° 288° (WNW) 953 ? -12.2°
Drops below altitude 10° 03:42:55 10° 208° (SSW) 2,532 ? -11.1°
Sets 03:45:22 0° 205° (SSW) 3,510 ? -10.6°
